Back to catalog

SL-16 DEB

AliveLEO
NORAD 39864·DEBRIS·🇷🇺 Russia

Launched Dec 25, 1992 from Baikonur Cosmodrome

Loading…

Next Passes (next 24 hours)

TLE

StaleSource: Space-Track

Epoch: Aug 28, 2026, 22:28 UTC

1 39864U 92093LS  26240.93649818  .00000492  00000-0  24997-3 0  9994
2 39864  71.1528 345.8890 0108337 116.8384 244.3867 14.17596751629430

Track SL-16 DEB in real time with AllMySat

Download on the App Store